QPF
0.01 0.01 0.00 0.01 0.01 0.01 0.02 0.02 0.01 0.02 0.02 0.02 0.02 0.02 0.01 0.00 0.00 0.01 0.01 0.01 0.02 0.02 0.01 0.01 0.01 0.01 0.01 0.02 0.03 0.03 0.04 0.05 0.05 0.05 0.05 0.04 0.04 0.04 0.05 0.06 0.08 0.07 0.07
0.01 0.01 0.01 0.01 0.01 0.01 0.01 0.01 0.01 0.01 0.01 0.01 0.01 0.01 0.01 0.00 0.00 0.01 0.01 0.01 0.01 0.02 0.02 0.01 0.00 0.01 0.02 0.02 0.02 0.02 0.03 0.04 0.04 0.05 0.05 0.04 0.04 0.04 0.05 0.05 0.07 0.07 0.06
0.01 0.01 0.01 0.01 0.01 0.01 0.01 0.01 0.02 0.01 0.01 0.01 0.01 0.00 0.00 0.00 0.00 0.00 0.01 0.01 0.01 0.02 0.01 0.01 0.01 0.01 0.01 0.02 0.03 0.03 0.03 0.02 0.03 0.04 0.05 0.04 0.04 0.05 0.05 0.05 0.05 0.05 0.04
0.01 0.01 0.01 0.01 0.01 0.01 0.01 0.01 0.01 0.01 0.01 0.01 0.01 0.00 0.00 0.00 0.00 0.00 0.00 0.02 0.02 0.02 0.01 0.01 0.01 0.02 0.02 0.02 0.02 0.03 0.03 0.03 0.03 0.03 0.04 0.04 0.03 0.03 0.04 0.04 0.04 0.04 0.04
0.01 0.01 0.01 0.01 0.01 0.01 0.01 0.01 0.01 0.02 0.02 0.01 0.01 0.00 0.00 0.00 0.00 0.00 0.01 0.01 0.02 0.02 0.02 0.01 0.01 0.02 0.02 0.02 0.02 0.02 0.02 0.02 0.02 0.02 0.02 0.03 0.03 0.02 0.03 0.04 0.04 0.04 0.04
0.00 0.00 0.01 0.01 0.01 0.01 0.01 0.01 0.01 0.02 0.02 0.02 0.01 0.01 0.01 0.01 0.01 0.01 0.01 0.00 0.01 0.01 0.02 0.01 0.01 0.02 0.01 0.01 0.01 0.02 0.02 0.02 0.02 0.02 0.01 0.02 0.02 0.02 0.02 0.03 0.04 0.04 0.04
0.00 0.00 0.01 0.01 0.01 0.01 0.01 0.01 0.02 0.01 0.01 0.02 0.02 0.01 0.01 0.01 0.01 0.01 0.01 0.00 0.01 0.01 0.01 0.01 0.01 0.01 0.01 0.00 0.01 0.01 0.01 0.01 0.01 0.01 0.01 0.01 0.01 0.02 0.01 0.02 0.02 0.02 0.02
0.00 0.01 0.01 0.00 0.01 0.01 0.01 0.01 0.01 0.00 0.01 0.02 0.02 0.03 0.02 0.01 0.02 0.01 0.01 0.00 0.00 0.00 0.01 0.01 0.01 0.01 0.01 0.01 0.01 0.01 0.01 0.00 0.00 0.00 0.01 0.01 0.01 0.01 0.01 0.01 0.01 0.01 0.01
0.01 0.01 0.01 0.01 0.01 0.01 0.01 0.01 0.01 0.01 0.02 0.01 0.01 0.02 0.03 0.03 0.04 0.02 0.02 0.01 0.01 0.00 0.01 0.01 0.01 0.02 0.02 0.01 0.01 0.01 0.01 0.01 0.01 0.01 0.01 0.01 0.01 0.01 0.02 0.02 0.02 0.02 0.02
0.02 0.02 0.02 0.02 0.02 0.02 0.01 0.01 0.01 0.01 0.02 0.00 0.01 0.01 0.01 0.02 0.04 0.04 0.03 0.01 0.01 0.00 0.01 0.01 0.01 0.01 0.01 0.01 0.01 0.01 0.01 0.01 0.01 0.01 0.01 0.01 0.01 0.01 0.02 0.02 0.03 0.04 0.04
0.02 0.02 0.02 0.02 0.02 0.02 0.02 0.01 0.01 0.01 0.01 0.01 0.01 0.01 0.00 0.01 0.02 0.03 0.04 0.02 0.02 0.02 0.01 0.01 0.01 0.01 0.01 0.01 0.01 0.01 0.01 0.01 0.01 0.01 0.01 0.01 0.01 0.01 0.01 0.02 0.02 0.03 0.05
0.01 0.01 0.01 0.02 0.03 0.03 0.03 0.02 0.02 0.02 0.02 0.01 0.01 0.02 0.01 0.01 0.01 0.02 0.04 0.04 0.03 0.02 0.02 0.01 0.01 0.01 0.01 0.01 0.01 0.01 0.02 0.02 0.02 0.02 0.02 0.02 0.02 0.02 0.02 0.02 0.02 0.02 0.03
0.01 0.01 0.01 0.01 0.02 0.03 0.04 0.03 0.02 0.02 0.02 0.01 0.01 0.02 0.01 0.01 0.01 0.02 0.04 0.04 0.04 0.03 0.02 0.02 0.01 0.01 0.01 0.01 0.01 0.01 0.01 0.01 0.01 0.01 0.02 0.02 0.02 0.03 0.04 0.03 0.03 0.02 0.02
0.01 0.01 0.01 0.01 0.01 0.02 0.03 0.03 0.04 0.03 0.03 0.02 0.02 0.02 0.02 0.01 0.01 0.01 0.02 0.03 0.04 0.03 0.02 0.02 0.02 0.02 0.01 0.01 0.01 0.01 0.01 0.01 0.01 0.01 0.01 0.01 0.02 0.02 0.02 0.03 0.03 0.03 0.02
0.01 0.01 0.01 0.01 0.01 0.01 0.01 0.02 0.03 0.04 0.03 0.03 0.03 0.02 0.02 0.02 0.01 0.01 0.01 0.02 0.03 0.03 0.04 0.03 0.02 0.02 0.01 0.01 0.00 0.01 0.01 0.01 0.01 0.01 0.01 0.01 0.01 0.01 0.01 0.01 0.02 0.02 0.02
0.01 0.02 0.01 0.01 0.01 0.01 0.01 0.01 0.02 0.03 0.04 0.04 0.04 0.04 0.03 0.02 0.02 0.01 0.01 0.01 0.02 0.04 0.05 0.06 0.04 0.02 0.01 0.01 0.01 0.01 0.01 0.01 0.01 0.01 0.01 0.01 0.01 0.01 0.01 0.01 0.01 0.01 0.02
0.01 0.01 0.01 0.01 0.01 0.01 0.01 0.01 0.02 0.01 0.02 0.03 0.03 0.03 0.03 0.03 0.02 0.02 0.01 0.01 0.01 0.02 0.04 0.05 0.05 0.03 0.02 0.02 0.02 0.02 0.02 0.01 0.01 0.01 0.02 0.02 0.02 0.02 0.01 0.01 0.01 0.01 0.01
0.01 0.01 0.01 0.01 0.01 0.01 0.00 0.00 0.01 0.01 0.01 0.01 0.01 0.01 0.02 0.02 0.02 0.01 0.01 0.01 0.02 0.02 0.02 0.03 0.03 0.03 0.03 0.02 0.02 0.02 0.02 0.01 0.01 0.01 0.02 0.03 0.02 0.02 0.02 0.01 0.01 0.02 0.01
0.01 0.01 0.01 0.01 0.01 0.01 0.01 0.01 0.01 0.01 0.01 0.01 0.01 0.01 0.01 0.02 0.02 0.01 0.01 0.01 0.01 0.02 0.02 0.02 0.01 0.01 0.01 0.01 0.01 0.01 0.01 0.02 0.02 0.02 0.02 0.02 0.02 0.02 0.03 0.02 0.02 0.02 0.02
0.01 0.01 0.02 0.02 0.02 0.02 0.02 0.02 0.02 0.02 0.02 0.02 0.01 0.01 0.01 0.01 0.01 0.01 0.01 0.01 0.01 0.02 0.02 0.02 0.01 0.01 0.01 0.01 0.01 0.01 0.01 0.02 0.03 0.03 0.03 0.03 0.03 0.04 0.04 0.03 0.03 0.03 0.02
0.01 0.01 0.02 0.02 0.02 0.02 0.02 0.02 0.02 0.02 0.03 0.03 0.02 0.02 0.02 0.01 0.01 0.01 0.01 0.01 0.02 0.03 0.02 0.02 0.02 0.02 0.01 0.01 0.01 0.01 0.01 0.02 0.03 0.03 0.04 0.04 0.05 0.04 0.04 0.04 0.03 0.03 0.03
0.01 0.01 0.01 0.01 0.02 0.02 0.02 0.02 0.02 0.02 0.02 0.02 0.02 0.02 0.02 0.02 0.01 0.01 0.01 0.01 0.01 0.02 0.02 0.02 0.03 0.02 0.01 0.01 0.01 0.01 0.02 0.03 0.03 0.04 0.04 0.05 0.05 0.05 0.04 0.04 0.04 0.03 0.03
0.00 0.01 0.01 0.01 0.01 0.02 0.02 0.02 0.02 0.02 0.02 0.02 0.02 0.02 0.02 0.03 0.02 0.01 0.01 0.01 0.01 0.01 0.02 0.03 0.03 0.03 0.02 0.02 0.01 0.01 0.02 0.02 0.03 0.03 0.03 0.03 0.03 0.02 0.02 0.03 0.03 0.03 0.03
0.00 0.01 0.00 0.01 0.01 0.01 0.01 0.01 0.01 0.02 0.02 0.02 0.01 0.01 0.02 0.03 0.03 0.02 0.02 0.01 0.01 0.01 0.02 0.02 0.03 0.03 0.02 0.02 0.02 0.02 0.02 0.02 0.02 0.02 0.02 0.02 0.02 0.02 0.02 0.02 0.02 0.02 0.02
0.00 0.00 0.01 0.01 0.01 0.01 0.01 0.01 0.01 0.01 0.01 0.01 0.01 0.01 0.02 0.04 0.04 0.03 0.02 0.02 0.02 0.02 0.02 0.03 0.03 0.03 0.03 0.03 0.03 0.03 0.03 0.03 0.02 0.02 0.02 0.02 0.02 0.02 0.02 0.02 0.02 0.02 0.02
0.00 0.01 0.01 0.01 0.01 0.01 0.01 0.01 0.01 0.01 0.01 0.01 0.01 0.01 0.02 0.04 0.04 0.04 0.04 0.03 0.02 0.02 0.03 0.03 0.04 0.03 0.03 0.03 0.02 0.02 0.03 0.02 0.02 0.02 0.02 0.02 0.02 0.02 0.02 0.02 0.02 0.02 0.02
MSLP
1016.50 1017.04 1017.59 1018.11 1018.56 1018.92 1019.19 1019.41 1019.60 1019.80 1020.04 1020.33 1020.67 1021.04 1021.39 1021.72 1021.98 1022.19 1022.34 1022.45 1022.57 1022.70 1022.88 1023.10 1023.36 1023.64 1023.91 1024.13 1024.29 1024.36 1024.36 1024.29 1024.18 1024.05 1023.92 1023.82 1023.75 1023.72 1023.72 1023.74 1023.77 1023.80 1023.84
1016.21 1016.72 1017.24 1017.74 1018.18 1018.56 1018.87 1019.13 1019.39 1019.65 1019.95 1020.30 1020.67 1021.07 1021.45 1021.79 1022.07 1022.29 1022.45 1022.58 1022.69 1022.82 1022.98 1023.19 1023.42 1023.68 1023.93 1024.14 1024.30 1024.39 1024.42 1024.38 1024.30 1024.20 1024.09 1023.98 1023.90 1023.83 1023.78 1023.73 1023.70 1023.67 1023.65
1015.92 1016.41 1016.91 1017.39 1017.83 1018.23 1018.58 1018.91 1019.23 1019.56 1019.92 1020.32 1020.73 1021.14 1021.53 1021.88 1022.16 1022.38 1022.54 1022.67 1022.78 1022.91 1023.07 1023.26 1023.49 1023.73 1023.97 1024.18 1024.34 1024.45 1024.49 1024.48 1024.42 1024.33 1024.23 1024.13 1024.02 1023.93 1023.83 1023.74 1023.65 1023.56 1023.49
1015.63 1016.12 1016.60 1017.07 1017.52 1017.94 1018.34 1018.73 1019.13 1019.54 1019.97 1020.41 1020.86 1021.29 1021.67 1022.01 1022.27 1022.48 1022.63 1022.76 1022.88 1023.01 1023.17 1023.37 1023.60 1023.84 1024.07 1024.28 1024.44 1024.55 1024.59 1024.58 1024.52 1024.43 1024.33 1024.21 1024.08 1023.95 1023.82 1023.69 1023.56 1023.43 1023.32
1015.33 1015.82 1016.31 1016.78 1017.25 1017.70 1018.16 1018.62 1019.09 1019.58 1020.08 1020.58 1021.06 1021.49 1021.88 1022.19 1022.44 1022.62 1022.77 1022.89 1023.01 1023.16 1023.34 1023.56 1023.80 1024.04 1024.28 1024.47 1024.62 1024.70 1024.72 1024.68 1024.60 1024.48 1024.34 1024.19 1024.03 1023.87 1023.71 1023.55 1023.39 1023.24 1023.10
1014.99 1015.51 1016.02 1016.51 1017.00 1017.49 1018.01 1018.55 1019.10 1019.68 1020.25 1020.80 1021.31 1021.76 1022.13 1022.43 1022.66 1022.83 1022.97 1023.10 1023.24 1023.41 1023.61 1023.85 1024.10 1024.35 1024.58 1024.76 1024.87 1024.91 1024.88 1024.79 1024.65 1024.47 1024.28 1024.08 1023.88 1023.68 1023.49 1023.30 1023.12 1022.96 1022.81
1014.60 1015.17 1015.70 1016.22 1016.75 1017.29 1017.87 1018.49 1019.13 1019.78 1020.42 1021.03 1021.57 1022.04 1022.42 1022.72 1022.94 1023.11 1023.25 1023.38 1023.55 1023.74 1023.97 1024.24 1024.50 1024.76 1024.97 1025.11 1025.18 1025.16 1025.06 1024.89 1024.68 1024.42 1024.16 1023.89 1023.64 1023.40 1023.17 1022.96 1022.77 1022.60 1022.45
1014.15 1014.77 1015.35 1015.91 1016.48 1017.09 1017.73 1018.42 1019.13 1019.86 1020.57 1021.23 1021.82 1022.31 1022.71 1023.02 1023.25 1023.42 1023.58 1023.74 1023.93 1024.15 1024.41 1024.69 1024.97 1025.21 1025.40 1025.50 1025.51 1025.43 1025.25 1025.00 1024.69 1024.36 1024.02 1023.69 1023.38 1023.09 1022.83 1022.61 1022.40 1022.22 1022.08
1013.65 1014.33 1014.96 1015.58 1016.20 1016.86 1017.57 1018.32 1019.10 1019.89 1020.65 1021.37 1022.00 1022.53 1022.96 1023.29 1023.54 1023.74 1023.93 1024.11 1024.33 1024.58 1024.86 1025.15 1025.42 1025.65 1025.81 1025.87 1025.82 1025.67 1025.42 1025.10 1024.72 1024.32 1023.92 1023.53 1023.17 1022.85 1022.56 1022.30 1022.08 1021.90 1021.75
1013.11 1013.86 1014.56 1015.24 1015.92 1016.63 1017.39 1018.19 1019.02 1019.86 1020.67 1021.43 1022.10 1022.67 1023.13 1023.50 1023.79 1024.03 1024.24 1024.46 1024.70 1024.97 1025.26 1025.54 1025.80 1026.00 1026.13 1026.14 1026.05 1025.85 1025.56 1025.19 1024.77 1024.33 1023.89 1023.46 1023.07 1022.72 1022.40 1022.13 1021.89 1021.68 1021.51
1012.58 1013.40 1014.17 1014.91 1015.65 1016.41 1017.21 1018.05 1018.91 1019.78 1020.62 1021.41 1022.11 1022.72 1023.22 1023.63 1023.96 1024.24 1024.49 1024.74 1025.00 1025.27 1025.55 1025.81 1026.05 1026.22 1026.31 1026.29 1026.17 1025.95 1025.64 1025.26 1024.84 1024.39 1023.95 1023.52 1023.12 1022.75 1022.41 1022.11 1021.84 1021.61 1021.41
1012.08 1012.98 1013.81 1014.62 1015.41 1016.22 1017.05 1017.91 1018.79 1019.67 1020.52 1021.32 1022.05 1022.68 1023.22 1023.67 1024.05 1024.37 1024.65 1024.92 1025.18 1025.45 1025.71 1025.94 1026.14 1026.27 1026.33 1026.30 1026.17 1025.96 1025.67 1025.32 1024.93 1024.51 1024.10 1023.69 1023.30 1022.93 1022.57 1022.25 1021.95 1021.67 1021.43
1011.63 1012.60 1013.51 1014.37 1015.22 1016.06 1016.91 1017.78 1018.65 1019.53 1020.37 1021.18 1021.91 1022.57 1023.15 1023.64 1024.05 1024.41 1024.72 1025.00 1025.26 1025.51 1025.73 1025.92 1026.08 1026.18 1026.21 1026.17 1026.05 1025.87 1025.63 1025.34 1025.02 1024.67 1024.31 1023.94 1023.57 1023.20 1022.84 1022.49 1022.15 1021.83 1021.54
1011.24 1012.27 1013.24 1014.17 1015.06 1015.93 1016.79 1017.65 1018.51 1019.37 1020.20 1020.99 1021.73 1022.41 1023.01 1023.54 1023.99 1024.38 1024.71 1025.00 1025.25 1025.46 1025.64 1025.79 1025.90 1025.96 1025.97 1025.94 1025.85 1025.72 1025.55 1025.34 1025.09 1024.82 1024.53 1024.21 1023.87 1023.51 1023.14 1022.75 1022.38 1022.01 1021.68
1010.88 1011.96 1012.99 1013.97 1014.90 1015.79 1016.66 1017.51 1018.35 1019.18 1019.99 1020.77 1021.51 1022.20 1022.82 1023.39 1023.88 1024.29 1024.65 1024.94 1025.17 1025.35 1025.49 1025.59 1025.65 1025.68 1025.68 1025.65 1025.60 1025.53 1025.43 1025.30 1025.15 1024.96 1024.73 1024.45 1024.13 1023.78 1023.38 1022.97 1022.55 1022.15 1021.78
1010.52 1011.64 1012.72 1013.74 1014.70 1015.61 1016.48 1017.32 1018.13 1018.94 1019.72 1020.49 1021.23 1021.94 1022.59 1023.19 1023.71 1024.17 1024.54 1024.83 1025.05 1025.21 1025.31 1025.36 1025.39 1025.39 1025.38 1025.37 1025.35 1025.33 1025.30 1025.25 1025.17 1025.04 1024.86 1024.62 1024.31 1023.94 1023.53 1023.08 1022.63 1022.19 1021.79
1010.13 1011.28 1012.39 1013.44 1014.43 1015.35 1016.22 1017.05 1017.84 1018.62 1019.39 1020.15 1020.90 1021.62 1022.30 1022.93 1023.50 1023.98 1024.38 1024.69 1024.90 1025.04 1025.11 1025.14 1025.13 1025.12 1025.11 1025.11 1025.12 1025.15 1025.17 1025.18 1025.15 1025.07 1024.92 1024.69 1024.37 1023.99 1023.54 1023.06 1022.58 1022.11 1021.70
1009.68 1010.85 1011.98 1013.06 1014.06 1014.99 1015.86 1016.67 1017.45 1018.21 1018.97 1019.73 1020.48 1021.22 1021.94 1022.61 1023.21 1023.74 1024.16 1024.49 1024.71 1024.84 1024.90 1024.91 1024.89 1024.87 1024.86 1024.88 1024.92 1024.97 1025.04 1025.09 1025.09 1025.03 1024.89 1024.66 1024.33 1023.92 1023.45 1022.93 1022.42 1021.94 1021.52
1009.17 1010.35 1011.50 1012.59 1013.61 1014.54 1015.40 1016.20 1016.96 1017.71 1018.45 1019.21 1019.97 1020.73 1021.48 1022.18 1022.83 1023.39 1023.85 1024.20 1024.44 1024.58 1024.65 1024.66 1024.64 1024.62 1024.62 1024.65 1024.72 1024.80 1024.89 1024.96 1024.98 1024.93 1024.79 1024.54 1024.20 1023.76 1023.26 1022.73 1022.20 1021.71 1021.30
1008.63 1009.81 1010.97 1012.07 1013.09 1014.01 1014.86 1015.65 1016.39 1017.12 1017.85 1018.60 1019.37 1020.14 1020.91 1021.64 1022.32 1022.92 1023.42 1023.80 1024.06 1024.23 1024.31 1024.34 1024.34 1024.33 1024.35 1024.40 1024.48 1024.58 1024.69 1024.77 1024.81 1024.76 1024.61 1024.36 1023.99 1023.54 1023.03 1022.49 1021.96 1021.47 1021.08
1008.09 1009.28 1010.44 1011.54 1012.55 1013.46 1014.29 1015.05 1015.77 1016.48 1017.19 1017.92 1018.68 1019.45 1020.23 1020.98 1021.69 1022.32 1022.84 1023.26 1023.55 1023.75 1023.86 1023.91 1023.93 1023.96 1024.00 1024.07 1024.17 1024.29 1024.41 1024.51 1024.55 1024.50 1024.36 1024.10 1023.73 1023.28 1022.77 1022.24 1021.72 1021.25 1020.87
1007.59 1008.79 1009.95 1011.04 1012.03 1012.93 1013.73 1014.46 1015.15 1015.81 1016.49 1017.19 1017.93 1018.69 1019.46 1020.22 1020.94 1021.58 1022.13 1022.58 1022.91 1023.13 1023.28 1023.37 1023.42 1023.47 1023.54 1023.64 1023.76 1023.90 1024.04 1024.14 1024.19 1024.16 1024.02 1023.77 1023.42 1022.99 1022.50 1021.99 1021.49 1021.05 1020.68
1007.16 1008.37 1009.53 1010.60 1011.58 1012.44 1013.21 1013.89 1014.54 1015.16 1015.79 1016.45 1017.16 1017.89 1018.64 1019.39 1020.10 1020.75 1021.32 1021.79 1022.15 1022.41 1022.59 1022.71 1022.81 1022.89 1022.99 1023.11 1023.26 1023.41 1023.56 1023.68 1023.74 1023.72 1023.60 1023.37 1023.05 1022.65 1022.20 1021.72 1021.26 1020.85 1020.51
1006.80 1008.01 1009.17 1010.23 1011.18 1012.01 1012.73 1013.37 1013.96 1014.53 1015.12 1015.73 1016.39 1017.09 1017.81 1018.54 1019.24 1019.89 1020.47 1020.95 1021.34 1021.63 1021.85 1022.01 1022.13 1022.25 1022.38 1022.52 1022.68 1022.85 1023.01 1023.13 1023.20 1023.20 1023.10 1022.90 1022.62 1022.26 1021.85 1021.42 1021.00 1020.62 1020.31
1006.49 1007.72 1008.87 1009.91 1010.82 1011.61 1012.29 1012.88 1013.42 1013.95 1014.48 1015.05 1015.67 1016.33 1017.02 1017.73 1018.41 1019.06 1019.64 1020.14 1020.55 1020.87 1021.12 1021.31 1021.47 1021.61 1021.76 1021.92 1022.09 1022.27 1022.43 1022.56 1022.63 1022.63 1022.55 1022.38 1022.13 1021.81 1021.44 1021.06 1020.68 1020.34 1020.06
1006.21 1007.43 1008.57 1009.58 1010.46 1011.21 1011.85 1012.41 1012.91 1013.40 1013.90 1014.43 1015.02 1015.65 1016.32 1017.01 1017.68 1018.33 1018.91 1019.42 1019.84 1020.19 1020.46 1020.68 1020.87 1021.04 1021.20 1021.37 1021.54 1021.71 1021.87 1021.99 1022.06 1022.06 1021.99 1021.83 1021.61 1021.32 1020.99 1020.65 1020.31 1020.00 1019.75
Thickness
5701 5700 5698 5697 5696 5695 5693 5692 5691 5690 5689 5688 5686 5684 5682 5680 5679 5677 5675 5674 5672 5671 5671 5670 5669 5669 5667 5666 5665 5663 5661 5658 5651 5650 5652 5652 5651 5649 5647 5646 5644 5642 5640
5698 5696 5694 5693 5692 5691 5689 5689 5688 5687 5686 5685 5684 5682 5680 5678 5676 5674 5673 5672 5670 5668 5668 5668 5666 5666 5664 5663 5662 5660 5658 5656 5651 5646 5647 5646 5646 5645 5644 5642 5641 5639 5637
5694 5691 5689 5688 5688 5686 5685 5685 5684 5683 5682 5682 5680 5678 5677 5675 5673 5672 5670 5669 5668 5667 5666 5665 5664 5663 5660 5659 5658 5657 5655 5654 5650 5646 5643 5642 5642 5641 5640 5638 5637 5636 5634
5689 5686 5684 5683 5683 5682 5681 5680 5679 5678 5678 5677 5676 5675 5674 5672 5670 5668 5667 5666 5664 5664 5664 5663 5661 5660 5658 5656 5655 5653 5652 5649 5646 5643 5639 5638 5637 5637 5635 5632 5630 5630 5629
5684 5681 5679 5679 5679 5678 5677 5675 5675 5673 5673 5672 5671 5670 5669 5668 5666 5664 5663 5662 5660 5659 5659 5659 5658 5658 5656 5655 5652 5650 5648 5644 5642 5639 5636 5634 5632 5630 5629 5628 5626 5625 5624
5680 5677 5676 5675 5673 5672 5671 5670 5669 5668 5667 5667 5665 5664 5663 5663 5662 5661 5659 5658 5657 5656 5654 5654 5654 5653 5652 5651 5650 5648 5645 5641 5638 5635 5632 5630 5629 5628 5627 5626 5622 5619 5616
5674 5672 5670 5669 5667 5666 5666 5664 5663 5662 5662 5661 5660 5659 5658 5657 5657 5657 5655 5654 5653 5652 5651 5650 5650 5650 5648 5646 5645 5644 5642 5640 5638 5634 5630 5628 5627 5626 5624 5621 5619 5616 5614
5668 5667 5665 5663 5662 5661 5660 5658 5657 5657 5656 5655 5655 5654 5652 5652 5652 5652 5651 5651 5650 5649 5648 5647 5645 5644 5643 5642 5640 5638 5636 5634 5633 5632 5629 5627 5626 5624 5622 5619 5616 5614 5612
5662 5661 5660 5658 5656 5654 5653 5653 5652 5651 5650 5650 5650 5649 5648 5647 5647 5647 5646 5645 5645 5644 5644 5643 5641 5639 5639 5637 5634 5632 5630 5629 5629 5628 5626 5624 5622 5620 5618 5614 5610 5606 5602
5657 5656 5655 5654 5651 5649 5648 5648 5647 5645 5644 5645 5644 5644 5643 5642 5642 5642 5641 5640 5639 5638 5638 5637 5636 5635 5633 5631 5629 5626 5623 5622 5622 5621 5619 5618 5616 5614 5612 5609 5606 5601 5597
5652 5650 5649 5648 5646 5645 5643 5642 5641 5640 5639 5639 5639 5639 5638 5638 5637 5636 5635 5634 5633 5632 5631 5630 5629 5629 5627 5625 5623 5621 5619 5618 5616 5614 5612 5610 5609 5607 5604 5602 5600 5597 5592
5645 5643 5642 5641 5640 5640 5637 5636 5635 5634 5632 5631 5631 5631 5632 5632 5631 5629 5629 5628 5627 5626 5624 5623 5623 5622 5620 5618 5617 5616 5614 5612 5609 5606 5603 5601 5600 5598 5596 5595 5593 5590 5588
5637 5635 5635 5634 5633 5632 5630 5628 5627 5626 5624 5624 5624 5623 5623 5624 5623 5623 5622 5621 5621 5619 5619 5618 5616 5615 5613 5611 5610 5609 5606 5603 5601 5598 5596 5594 5593 5592 5589 5587 5584 5581 5579
5631 5629 5628 5626 5625 5624 5623 5622 5620 5618 5617 5617 5617 5617 5617 5616 5616 5615 5614 5613 5613 5612 5611 5610 5609 5607 5605 5603 5601 5600 5598 5596 5594 5592 5589 5587 5585 5583 5579 5577 5574 5570 5567
5625 5623 5621 5619 5617 5615 5615 5614 5613 5612 5612 5611 5611 5611 5610 5608 5610 5609 5608 5607 5606 5605 5603 5600 5599 5597 5595 5594 5593 5591 5590 5588 5586 5584 5581 5578 5576 5573 5570 5567 5564 5560 5556
5617 5616 5614 5612 5611 5609 5607 5606 5606 5606 5606 5605 5605 5605 5605 5604 5604 5602 5601 5601 5599 5598 5594 5592 5591 5590 5588 5587 5585 5583 5582 5580 5578 5576 5573 5570 5567 5564 5561 5558 5554 5550 5547
5610 5608 5607 5605 5604 5602 5601 5598 5596 5596 5597 5597 5597 5597 5596 5596 5595 5594 5593 5592 5590 5589 5585 5584 5584 5583 5582 5580 5579 5577 5575 5573 5571 5568 5565 5562 5559 5556 5553 5549 5545 5542 5539
5602 5601 5599 5598 5597 5596 5595 5593 5592 5589 5587 5587 5587 5588 5588 5587 5586 5585 5584 5581 5579 5579 5578 5577 5577 5576 5575 5573 5572 5570 5568 5565 5563 5560 5557 5554 5551 5548 5544 5540 5537 5533 5531
5593 5592 5591 5590 5589 5588 5588 5587 5585 5583 5582 5580 5579 5578 5579 5578 5577 5576 5574 5573 5572 5572 5571 5570 5570 5569 5567 5566 5564 5562 5560 5557 5554 5552 5549 5546 5543 5539 5536 5532 5529 5526 5523
5585 5585 5583 5581 5580 5579 5579 5578 5577 5576 5574 5573 5572 5571 5569 5567 5566 5565 5565 5565 5565 5564 5563 5562 5562 5561 5560 5558 5556 5553 5551 5549 5546 5543 5540 5537 5534 5531 5527 5524 5521 5518 5515
5576 5575 5575 5573 5571 5571 5570 5570 5570 5568 5566 5565 5564 5564 5562 5560 5559 5559 5558 5557 5557 5557 5556 5555 5554 5552 5551 5549 5547 5545 5542 5540 5537 5534 5531 5528 5524 5521 5518 5515 5513 5510 5507
5567 5566 5565 5564 5563 5562 5562 5562 5562 5561 5560 5558 5557 5556 5554 5552 5551 5551 5550 5549 5549 5549 5548 5547 5545 5544 5542 5541 5539 5536 5533 5530 5528 5525 5522 5518 5515 5512 5510 5507 5504 5501 5499
5558 5557 5556 5555 5555 5554 5553 5552 5551 5551 5550 5550 5548 5546 5544 5543 5542 5542 5541 5540 5539 5539 5538 5537 5536 5534 5533 5531 5530 5528 5525 5522 5519 5516 5512 5508 5505 5503 5500 5498 5496 5493 5491
5548 5547 5546 5546 5545 5544 5543 5542 5541 5540 5539 5539 5538 5536 5534 5533 5532 5532 5531 5531 5530 5529 5529 5528 5526 5525 5523 5521 5519 5517 5515 5512 5509 5506 5503 5499 5496 5493 5491 5489 5487 5485 5482
5538 5537 5536 5536 5535 5534 5533 5532 5531 5530 5529 5528 5527 5526 5525 5523 5522 5522 5522 5521 5521 5520 5519 5518 5517 5516 5514 5512 5510 5508 5506 5503 5500 5496 5492 5489 5487 5484 5481 5480 5478 5476 5473
5528 5527 5527 5526 5525 5524 5523 5522 5521 5520 5519 5517 5517 5516 5515 5514 5513 5512 5512 5511 5510 5510 5509 5508 5507 5506 5505 5503 5501 5499 5496 5493 5490 5486 5482 5480 5477 5475 5472 5470 5469 5467 5464